Theta_e
337 336 336 336 336 335 335 335 335 335 334 335 335 336 336 336 336 337 336 335 335 335 335 334 333 333 332 331 329 329 329 328 328 328 328 328 327 326 326 326 325 324
337 336 336 336 336 335 335 335 335 335 335 335 335 335 336 336 336 336 336 335 335 334 334 334 333 333 332 331 330 329 328 327 327 327 326 326 325 325 325 325 325 324
337 336 336 336 336 335 335 335 335 335 335 335 335 336 336 336 336 336 335 335 334 334 334 333 332 332 331 330 328 327 327 326 326 325 325 324 324 323 324 324 324 324
337 337 336 336 336 336 336 336 335 336 335 336 336 336 336 336 336 336 335 335 334 334 333 332 331 330 329 328 327 326 325 325 324 324 323 322 321 321 321 322 322 322
337 337 337 337 337 336 336 336 336 336 336 336 336 336 336 336 336 335 335 334 334 333 332 331 330 328 327 326 325 325 324 323 323 322 321 321 320 319 318 318 318 317
337 337 337 337 337 337 336 336 336 336 336 336 336 336 335 335 335 335 335 334 333 333 331 330 329 327 326 325 324 323 323 322 322 321 320 319 318 317 316 314 314 312
338 337 337 337 337 337 337 336 336 336 336 336 336 336 335 335 335 335 335 334 333 332 331 330 328 326 325 323 322 322 321 320 320 319 318 317 316 315 313 312 311 310
338 337 337 337 337 337 337 336 336 336 336 336 335 335 335 335 335 334 334 333 332 331 330 329 327 326 324 323 322 321 320 318 317 316 316 315 315 313 312 311 310 309
338 337 337 337 337 337 337 336 336 336 335 335 335 335 335 334 334 334 333 332 332 331 329 328 326 325 323 322 321 320 318 317 315 314 314 314 313 312 311 310 309 308
337 337 336 336 336 336 336 336 336 335 334 334 334 335 334 334 334 333 333 332 331 330 328 327 325 324 322 321 320 318 317 315 313 312 312 312 312 312 311 310 309 308
337 337 336 336 336 335 336 336 335 335 333 332 333 334 334 334 333 332 331 331 330 329 327 326 325 323 322 320 319 317 315 313 311 310 310 311 311 311 310 309 309 308
337 336 336 336 336 335 335 336 335 334 333 331 332 334 334 334 333 332 331 330 329 328 327 325 324 322 321 320 318 316 314 312 310 310 310 310 310 310 310 309 309 308
337 336 336 336 335 335 335 335 334 334 333 331 331 333 334 333 333 332 332 331 329 327 326 325 324 322 320 319 317 315 313 312 310 310 309 310 309 309 309 308 308 307
337 336 336 335 335 334 334 335 334 335 334 330 331 334 334 333 333 333 332 330 328 327 325 324 323 321 320 318 316 315 313 312 310 310 309 309 308 308 308 307 307 306
337 336 336 335 335 334 334 334 334 335 333 331 332 334 333 333 333 333 332 329 328 326 325 323 322 321 320 319 317 315 313 311 310 309 309 308 308 307 307 306 306 305
337 336 335 335 335 334 334 334 335 335 333 332 332 332 332 333 333 332 331 329 328 326 324 323 322 321 321 320 318 317 314 311 310 309 308 308 307 307 306 305 305 304
337 336 335 335 334 334 334 335 335 334 332 331 331 330 331 332 331 330 329 328 328 327 325 323 322 322 321 320 318 317 314 311 309 308 308 307 307 306 305 305 304 303
337 336 335 335 334 334 335 335 334 332 330 329 329 329 329 329 328 328 328 327 327 328 326 325 323 323 321 320 318 316 313 310 309 308 307 307 306 306 305 304 303 302
337 336 335 335 334 334 334 333 332 331 329 329 329 328 327 327 327 326 327 327 327 327 327 325 324 323 321 319 318 315 312 309 308 307 307 306 306 305 305 304 302 302
336 336 335 335 334 333 333 333 331 330 329 329 329 327 326 325 325 325 325 326 326 327 327 325 324 323 321 319 318 314 311 309 307 307 306 306 305 305 304 303 302 302
336 335 335 334 334 333 333 332 331 329 329 329 327 326 325 325 325 326 326 326 326 326 326 324 324 323 321 319 317 313 310 308 307 306 306 305 305 304 304 303 303 303
336 335 335 334 333 333 332 331 330 329 328 328 326 325 325 324 324 325 326 327 327 326 325 323 323 323 321 319 317 313 309 307 306 306 305 305 305 304 304 303 303 303
336 335 335 334 333 332 332 331 330 329 328 327 326 324 323 322 322 323 324 325 325 325 324 323 323 322 320 318 316 312 308 307 306 306 305 305 304 304 304 304 303 303
336 336 335 334 333 332 331 331 330 329 328 326 325 324 323 322 323 322 320 322 325 326 325 325 324 322 320 318 316 312 308 307 306 306 305 305 304 304 303 303 303 302
336 336 335 334 333 332 331 331 330 329 328 326 325 324 323 322 323 322 319 321 325 326 325 324 323 321 319 318 315 311 308 307 306 306 306 305 305 304 303 303 304 302
336 335 335 333 333 332 332 331 330 329 328 326 324 323 322 322 321 320 319 320 321 321 321 320 319 319 318 317 314 310 307 307 307 306 305 305 304 304 304 303 303 303
Wind_Speed
34 35 36 34 34 35 33 30 28 29 29 29 27 25 25 24 23 22 20 20 19 19 19 19 18 18 18 17 15 14 15 16 16 18 18 19 20 21 21 22 22 22
35 36 36 35 35 36 36 34 32 31 31 31 31 29 27 26 23 22 21 20 20 20 20 19 19 18 17 16 15 14 15 15 15 16 17 18 18 19 19 19 20 21
37 37 38 37 36 37 36 35 33 32 32 32 31 30 28 26 23 23 22 21 21 21 21 20 19 18 17 16 15 14 15 15 15 15 16 17 17 17 18 18 19 19
39 38 39 37 36 37 37 35 34 33 32 32 31 30 28 26 24 23 22 22 22 21 21 21 19 18 17 15 15 15 15 15 15 15 15 16 16 17 17 17 17 17
40 37 34 30 29 34 37 36 34 33 33 32 31 31 29 26 25 24 23 23 23 22 21 21 20 18 17 16 15 15 15 15 15 15 15 16 16 17 17 16 16 16
40 33 29 26 25 28 32 35 35 34 33 33 32 31 29 28 26 25 25 24 24 23 22 21 20 19 17 16 16 15 15 16 15 15 16 16 17 17 17 16 16 15
37 29 28 27 27 25 27 31 34 35 34 33 33 32 30 28 27 26 26 26 25 24 23 22 21 19 18 16 16 16 16 16 16 15 16 17 17 17 17 16 16 15
31 28 28 28 27 26 25 26 29 34 36 33 33 33 31 29 28 28 27 26 26 25 24 23 21 20 18 17 16 16 16 16 16 16 17 17 17 17 17 17 16 16
29 28 27 28 29 26 26 25 26 31 34 32 33 33 31 31 29 28 28 27 26 25 24 23 22 20 19 17 16 16 16 17 16 16 17 17 18 18 17 17 17 16
30 28 27 29 30 27 27 26 24 24 26 28 33 33 31 31 30 28 28 27 26 26 25 24 23 21 20 18 17 16 16 16 16 16 16 17 17 17 17 18 17 17
30 30 29 30 29 26 27 27 24 22 22 23 29 33 32 31 30 29 28 27 26 26 26 25 23 22 20 18 17 17 16 15 15 15 16 16 17 17 17 18 17 17
29 31 31 30 29 27 27 27 24 23 21 20 26 33 33 31 31 30 28 27 27 26 26 25 24 22 20 19 18 17 16 16 15 15 16 16 17 17 17 17 17 17
29 32 32 32 31 28 27 27 27 26 23 20 24 32 33 31 32 30 28 28 27 27 26 25 24 23 21 19 18 17 17 17 16 16 16 16 17 17 17 17 17 17
30 31 32 37 37 33 32 32 33 33 26 20 26 33 33 32 32 30 29 28 27 27 26 25 24 23 22 21 19 18 18 17 17 17 17 17 17 18 17 17 17 17
30 28 30 36 38 35 34 35 35 35 28 23 30 35 33 32 32 31 30 29 27 27 27 26 25 24 22 21 19 19 18 18 18 18 18 18 18 18 18 18 17 17
29 28 30 33 33 32 35 36 36 36 34 32 34 35 33 34 33 32 32 30 27 28 28 27 26 25 23 21 18 18 18 19 20 19 19 19 19 19 19 18 18 17
28 30 30 29 29 33 37 38 36 37 36 33 34 34 33 35 35 34 34 31 27 27 28 29 28 25 23 21 19 17 17 19 21 20 20 20 19 20 20 19 18 17
30 30 29 28 30 36 40 38 37 37 34 32 35 35 34 35 36 35 35 32 29 27 28 29 28 26 24 22 19 18 18 19 21 20 21 21 20 20 20 19 19 18
29 28 28 28 32 37 39 38 37 35 34 36 38 36 34 34 35 36 36 34 32 29 29 30 29 27 25 23 20 18 18 19 20 20 21 21 21 20 20 19 20 20
30 29 29 28 32 37 38 39 37 32 34 39 39 36 35 35 36 37 37 36 35 32 30 31 30 27 26 23 20 19 19 20 20 20 21 21 21 21 20 20 21 22
32 32 30 28 33 38 39 39 35 29 33 38 36 35 37 36 37 39 38 38 37 34 32 32 30 28 26 23 21 19 19 20 20 21 21 21 21 20 20 21 22 22
33 33 33 32 36 39 39 39 35 28 30 33 31 33 37 36 37 40 40 39 37 35 33 32 30 28 26 23 21 20 21 22 22 22 22 22 21 21 21 22 22 22
31 32 33 34 37 39 36 36 33 29 31 35 33 34 36 35 36 39 39 39 38 36 34 33 31 30 27 24 22 22 23 25 24 22 22 22 21 21 22 23 22 23
29 30 32 34 37 37 34 32 28 26 30 34 34 34 35 35 37 38 37 38 38 35 34 33 32 31 29 26 24 24 26 27 25 23 22 21 21 22 23 22 22 22
27 30 31 32 34 35 34 30 25 23 29 33 33 35 36 36 37 37 35 36 37 34 33 33 33 32 30 27 26 26 28 28 26 24 23 22 22 23 23 23 24 23
30 30 30 30 31 33 33 30 26 25 30 34 33 32 34 35 35 35 35 35 35 34 34 34 34 32 30 27 26 27 28 28 27 27 26 25 24 23 23 24 26 25
Wind_Direction
206 207 207 206 206 208 210 209 207 209 212 213 213 213 214 216 216 214 213 213 211 210 212 213 214 217 221 227 227 224 226 230 233 236 237 236 234 235 237 237 238 237
206 207 207 207 207 209 212 213 213 215 217 219 219 219 220 220 217 214 214 212 209 210 212 214 216 219 223 227 229 229 230 232 234 236 237 236 236 236 237 238 238 238
205 207 208 208 208 210 212 214 218 219 219 220 221 222 223 222 217 214 214 212 210 211 212 215 218 221 224 227 228 229 230 233 235 237 237 238 239 238 237 237 237 237
204 207 208 208 208 210 212 214 216 217 217 219 221 222 223 221 216 213 213 212 212 212 213 216 220 222 224 225 226 227 228 231 234 236 238 238 237 235 234 233 232 232
204 206 204 203 204 208 211 212 214 215 217 218 220 222 221 219 214 211 212 213 213 214 216 218 220 221 223 223 223 225 227 230 232 232 234 236 235 231 229 227 226 225
204 202 198 199 200 202 206 210 212 215 216 217 219 221 220 217 213 211 213 214 214 216 217 219 220 221 221 220 221 224 227 230 231 230 231 231 230 227 223 220 218 217
201 197 194 198 199 199 202 206 210 214 215 216 218 219 218 216 213 212 214 215 215 217 219 221 221 221 220 219 220 223 226 229 230 229 229 227 226 222 217 212 209 209
196 193 193 196 198 198 198 200 206 211 214 215 216 217 217 216 214 213 214 215 216 218 220 221 221 221 221 219 221 225 227 229 229 227 226 223 220 217 212 206 203 204
194 192 192 196 197 197 198 198 203 208 211 213 214 215 216 215 215 214 214 214 216 218 219 219 219 220 221 220 223 227 229 230 229 227 224 221 217 213 208 203 200 201
194 191 190 194 196 197 198 199 199 201 205 209 212 214 214 214 215 215 214 214 214 216 217 217 218 219 219 220 223 226 228 229 228 225 222 220 217 213 208 203 200 201
193 191 192 193 195 197 198 198 195 195 199 202 209 213 213 213 213 212 213 213 213 214 215 215 216 218 218 220 222 224 224 225 225 222 220 218 216 214 210 206 205 205
191 193 194 192 193 194 195 195 193 194 197 199 207 212 212 212 212 211 212 212 212 214 214 214 215 216 216 219 221 220 219 219 219 219 218 216 214 213 211 210 209 209
192 194 194 192 192 192 194 195 196 199 200 201 207 212 212 211 211 211 211 211 212 213 213 214 215 214 215 217 218 217 215 214 214 215 215 214 212 211 211 211 211 211
193 193 193 194 195 196 197 198 201 204 203 203 209 212 213 212 211 210 209 209 212 213 212 213 214 213 214 215 215 215 213 213 213 212 212 212 210 210 210 210 210 210
191 190 190 192 194 195 196 198 202 204 204 206 211 212 213 212 212 210 207 206 209 211 211 212 213 213 215 214 213 213 212 212 212 211 210 209 207 206 207 207 208 208
190 188 188 189 189 190 192 197 202 204 207 210 211 210 211 212 210 208 206 204 206 209 210 211 213 215 216 216 216 216 214 211 210 209 208 207 205 203 203 204 206 206
188 185 186 186 186 188 192 197 202 204 206 208 207 207 210 210 207 205 205 204 205 209 211 211 213 215 215 215 216 218 216 211 208 207 206 205 205 202 201 202 202 202
185 183 185 184 184 187 191 196 200 201 201 202 204 205 207 207 204 203 204 204 204 208 211 213 214 214 213 213 214 215 214 210 208 207 205 204 203 202 203 202 199 197
182 182 184 183 183 186 189 194 197 197 198 202 204 204 204 204 203 204 205 205 203 205 210 214 214 212 211 211 212 213 211 208 209 209 207 205 203 202 203 201 198 194
181 182 182 182 183 185 188 192 195 195 198 202 203 202 202 202 202 203 205 206 205 205 209 211 212 211 209 208 209 210 208 207 209 210 208 207 206 204 202 200 198 195
183 183 182 181 182 184 186 191 193 194 198 201 201 199 200 201 202 204 206 207 206 207 208 210 210 210 207 205 206 207 204 204 207 208 207 207 207 205 203 201 200 200
185 184 182 181 182 184 186 190 193 194 195 197 197 198 199 201 202 205 206 207 207 207 208 209 209 209 205 203 205 204 200 201 205 207 206 206 206 205 203 202 204 205
185 183 183 182 182 183 186 191 193 194 196 197 196 197 199 200 203 205 206 205 205 206 207 208 208 207 203 201 203 201 196 197 201 203 204 206 206 205 204 205 206 206
185 184 184 183 183 184 187 190 191 192 196 197 196 196 198 201 205 206 205 205 206 208 208 208 208 206 201 199 201 199 196 196 199 200 201 203 204 204 206 207 207 208
187 188 187 185 185 185 187 190 191 192 197 198 199 199 199 201 205 206 204 206 209 211 210 210 210 206 199 197 199 197 196 197 198 198 198 199 200 203 205 205 206 210
189 190 189 188 188 188 190 193 193 194 198 200 201 201 200 201 203 203 202 203 207 209 208 209 210 204 197 197 199 197 197 198 199 199 200 199 199 200 201 203 205 210